Weather History for Beatrice, NE

Change the Weather History Date:

Sunday, October 21, 2012

  Actual Average Record
Temperature  
Mean Temperature 66 °F -  
Max Temperature 82 °F 68 °F 85 °F (1978)
Min Temperature 51 °F 43 °F 26 °F (1982)
Cooling Degree Days 2    
Growing Degree Days 16 (Base 50)    
Moisture  
Dew Point 53 °F    
Average Humidity 64    
Maximum Humidity 82    
Minimum Humidity 41    
Precipitation  
Precipitation 0.00 in - - ()
Sea Level Pressure  
Sea Level Pressure 29.72 in    
Wind  
Wind Speed 7 mph (SE)    
Max Wind Speed 18 mph    
Max Gust Speed 22 mph    
Visibility 10 miles    
Events      
Averages and records for this station are not official NWS values.
T = Trace of Precipitation, MM = Missing Value Source: NWS Daily Summary

Daily Weather History Graph

Daily Weather History Graph

Search for Another Location

Airport:

Trip Planner

Search our weather history database for the weather conditions in past years. The results will help you decide how hot, cold, wet, or windy it might be!

Date:

Astronomy

Oct. 21, 2012 Rise Set
Actual Time 7:44 AM CDT 6:37 PM CDT
Civil Twilight 7:17 AM CDT 7:05 PM CDT
Nautical Twilight 6:45 AM CDT 7:36 PM CDT
Astronomical Twilight 6:13 AM CDT 8:08 PM CDT
Moon 2:06 PM CDT (10/21) No Moon Set
Length of Visible Light 11h 48m
Length of Day
10h 52m
Waxing Crescent, 45% of the Moon is Illuminated
Oct 21
Waxing Crescent
Oct 21
First Quarter
Oct 29
Full
Nov 6
Last Quarter
Nov 13
New

Hourly Weather History & Observations

Time (CDT) Temp. Heat Index Dew Point Humidity Pressure Visibility Wind Dir Wind Speed Gust Speed Precip Events Conditions
12:15 AM 55.6 °F - 39.6 °F 55% 29.71 in 10.0 mi ESE 5.8 mph - N/A   Clear
12:35 AM 55.4 °F - 40.1 °F 56% 29.71 in 10.0 mi ESE 5.8 mph - N/A   Clear
12:55 AM 55.4 °F - 40.3 °F 57% 29.71 in 10.0 mi ESE 5.8 mph - N/A   Clear
1:15 AM 55.4 °F - 40.6 °F 58% 29.71 in 10.0 mi SE 5.8 mph - N/A   Clear
1:35 AM 55.0 °F - 41.0 °F 59% 29.71 in 10.0 mi SE 4.6 mph - N/A   Clear
1:55 AM 55.2 °F - 41.2 °F 59% 29.71 in 10.0 mi SE 5.8 mph - N/A   Clear
2:15 AM 54.9 °F - 41.7 °F 61% 29.70 in 10.0 mi SE 5.8 mph - N/A   Clear
2:35 AM 54.7 °F - 41.9 °F 62% 29.71 in 10.0 mi SE 5.8 mph - N/A   Clear
2:55 AM 55.2 °F - 42.3 °F 62% 29.71 in 10.0 mi SE 6.9 mph - N/A   Clear
3:15 AM 54.7 °F - 42.8 °F 64% 29.70 in 10.0 mi SE 5.8 mph - N/A   Clear
3:35 AM 55.4 °F - 43.2 °F 63% 29.70 in 10.0 mi SE 8.1 mph - N/A   Clear
3:55 AM 55.4 °F - 43.3 °F 64% 29.70 in 10.0 mi SE 5.8 mph - N/A   Clear
4:15 AM 54.9 °F - 43.7 °F 66% 29.70 in 10.0 mi SSE 6.9 mph - N/A   Clear
4:35 AM 54.1 °F - 43.9 °F 68% 29.70 in 10.0 mi SSE 6.9 mph - N/A   Clear
4:55 AM 54.5 °F - 44.4 °F 69% 29.70 in 10.0 mi SE 6.9 mph - N/A   Clear
5:15 AM 54.1 °F - 44.4 °F 70% 29.71 in 10.0 mi SE 5.8 mph - N/A   Clear
5:35 AM 53.2 °F - 44.4 °F 72% 29.71 in 10.0 mi SE 5.8 mph - N/A   Clear
5:55 AM 53.1 °F - 45.0 °F 74% 29.71 in 10.0 mi SE 6.9 mph - N/A   Clear
6:15 AM 53.6 °F - 45.5 °F 74% 29.71 in 10.0 mi SE 6.9 mph - N/A   Clear
6:35 AM 53.4 °F - 45.5 °F 75% 29.71 in 10.0 mi ESE 4.6 mph - N/A   Clear
6:55 AM 52.3 °F - 45.0 °F 76% 29.72 in 10.0 mi SE 5.8 mph - N/A   Clear
7:15 AM 52.3 °F - 45.5 °F 78% 29.73 in 10.0 mi SE 4.6 mph - N/A   Clear
7:35 AM 51.6 °F - 45.3 °F 79% 29.73 in 10.0 mi SE 5.8 mph - N/A   Clear
7:55 AM 52.2 °F - 45.9 °F 79% 29.72 in 10.0 mi SE 4.6 mph - N/A   Clear
8:15 AM 53.1 °F - 47.3 °F 81% 29.73 in 10.0 mi SSE 4.6 mph - N/A   Clear
8:35 AM 55.4 °F - 48.4 °F 77% 29.74 in 10.0 mi Calm Calm - N/A   Clear
8:55 AM 56.5 °F - 48.9 °F 76% 29.75 in 10.0 mi SE 4.6 mph - N/A   Clear
9:15 AM 58.3 °F - 49.8 °F 73% 29.75 in 10.0 mi SSE 5.8 mph - N/A   Clear
9:35 AM 59.9 °F - 51.1 °F 73% 29.76 in 10.0 mi SSE 5.8 mph - N/A   Clear
9:55 AM 61.9 °F - 52.7 °F 72% 29.76 in 10.0 mi SE 6.9 mph - N/A   Clear
10:15 AM 64.4 °F - 54.3 °F 70% 29.76 in 10.0 mi South 6.9 mph - N/A   Clear
10:35 AM 66.7 °F - 56.1 °F 69% 29.76 in 10.0 mi South 9.2 mph - N/A   Clear
10:55 AM 68.2 °F - 56.5 °F 66% 29.76 in 10.0 mi SSE 8.1 mph - N/A   Clear
11:15 AM 70.3 °F - 57.6 °F 64% 29.75 in 10.0 mi SE 8.1 mph - N/A   Clear
11:35 AM 72.1 °F - 58.6 °F 62% 29.75 in 10.0 mi SSE 6.9 mph - N/A   Clear
11:55 AM 73.4 °F - 59.0 °F 61% 29.75 in 10.0 mi SSE 9.2 mph - N/A   Clear
12:15 PM 74.8 °F - 59.5 °F 59% 29.74 in 10.0 mi SE 8.1 mph - N/A   Clear
12:35 PM 76.1 °F - 59.2 °F 56% 29.74 in 10.0 mi SSE 11.5 mph - N/A   Clear
12:55 PM 78.1 °F - 58.5 °F 51% 29.73 in 10.0 mi South 9.2 mph - N/A   Clear
1:15 PM 79.0 °F - 57.6 °F 48% 29.72 in 10.0 mi SSE 12.7 mph 17.3 mph N/A   Clear
1:35 PM 79.9 °F - 56.8 °F 45% 29.72 in 10.0 mi SSE 12.7 mph 19.6 mph N/A   Clear
1:55 PM 80.6 °F 80.7 °F 57.0 °F 44% 29.71 in 10.0 mi South 13.8 mph - N/A   Clear
2:15 PM 80.6 °F 80.7 °F 56.8 °F 44% 29.70 in 10.0 mi SE 11.5 mph - N/A   Clear
2:35 PM 80.8 °F 80.9 °F 57.0 °F 44% 29.70 in 10.0 mi SSE 13.8 mph - N/A   Clear
2:55 PM 81.0 °F 81.0 °F 57.0 °F 44% 29.69 in 10.0 mi SE 11.5 mph - N/A   Clear
3:15 PM 81.5 °F 81.4 °F 56.8 °F 43% 29.68 in 10.0 mi SE 17.3 mph 20.7 mph N/A   Clear
3:35 PM 81.7 °F 81.4 °F 56.5 °F 42% 29.67 in 10.0 mi South 12.7 mph 19.6 mph N/A   Clear
3:55 PM 82.2 °F 81.8 °F 56.1 °F 41% 29.67 in 10.0 mi SSE 13.8 mph - N/A   Clear
4:15 PM 81.7 °F 81.4 °F 56.5 °F 42% 29.68 in 10.0 mi SE 13.8 mph 18.4 mph N/A   Clear
4:35 PM 81.3 °F 81.2 °F 56.8 °F 43% 29.68 in 10.0 mi SE 12.7 mph 20.7 mph N/A   Clear
4:55 PM 81.0 °F 81.0 °F 57.4 °F 44% 29.68 in 10.0 mi SE 11.5 mph 17.3 mph N/A   Scattered Clouds
5:15 PM 79.0 °F - 57.4 °F 47% 29.70 in 10.0 mi South 13.8 mph 21.9 mph N/A   Scattered Clouds
5:35 PM 75.9 °F - 58.5 °F 55% 29.71 in 10.0 mi SSE 18.4 mph 21.9 mph N/A   Scattered Clouds
5:55 PM 75.2 °F - 58.6 °F 56% 29.71 in 10.0 mi SSE 10.4 mph - N/A   Scattered Clouds
6:15 PM 74.7 °F - 59.0 °F 58% 29.71 in 10.0 mi SE 5.8 mph - N/A   Scattered Clouds
6:35 PM 73.4 °F - 59.4 °F 61% 29.72 in 10.0 mi ESE 4.6 mph - N/A   Mostly Cloudy
6:55 PM 72.1 °F - 59.7 °F 65% 29.72 in 10.0 mi ESE 3.5 mph - N/A   Scattered Clouds
7:15 PM 71.2 °F - 60.1 °F 68% 29.73 in 10.0 mi East 3.5 mph - N/A   Mostly Cloudy
7:35 PM 71.4 °F - 60.1 °F 67% 29.73 in 10.0 mi East 4.6 mph - N/A   Overcast
7:55 PM 71.2 °F - 60.4 °F 69% 29.74 in 10.0 mi East 5.8 mph - N/A   Mostly Cloudy
8:15 PM 70.7 °F - 60.6 °F 70% 29.74 in 10.0 mi East 4.6 mph - N/A   Overcast
8:35 PM 70.7 °F - 60.8 °F 71% 29.74 in 10.0 mi East 4.6 mph - N/A   Overcast
8:55 PM 71.1 °F - 61.0 °F 70% 29.75 in 10.0 mi ENE 5.8 mph - N/A   Overcast
9:15 PM 71.1 °F - 61.3 °F 71% 29.75 in 10.0 mi East 5.8 mph - N/A   Overcast
9:35 PM 70.9 °F - 61.7 °F 73% 29.75 in 10.0 mi East 4.6 mph - N/A   Overcast
9:55 PM 70.3 °F - 61.7 °F 74% 29.75 in 10.0 mi East 5.8 mph - N/A   Mostly Cloudy
10:15 PM 69.6 °F - 61.7 °F 76% 29.75 in 10.0 mi East 5.8 mph - N/A   Clear
10:35 PM 69.3 °F - 61.7 °F 77% 29.75 in 10.0 mi East 5.8 mph - N/A   Scattered Clouds
10:55 PM 68.9 °F - 62.1 °F 79% 29.75 in 10.0 mi East 4.6 mph - N/A   Scattered Clouds
11:15 PM 68.5 °F - 62.1 °F 80% 29.75 in 7.0 mi ENE 4.6 mph - N/A   Mostly Cloudy
11:35 PM 68.2 °F - 62.6 °F 82% 29.74 in 7.0 mi East 5.8 mph - N/A   Scattered Clouds
11:55 PM 69.6 °F - 63.5 °F 81% 29.74 in 7.0 mi East 6.9 mph - N/A   Mostly Cloudy